,,PA_Meas_PMT16A,,PR_Meas_QMR101_102,,RH_Meas_QMH101,,SR_Meas_QMS101,,TA_Meas_QMH101,,GenWind,,GenWind,
time,status,PA,status,PR,status,RH,status,SR,status,TA,status,DirAvg,status,SpdAvg,
2011-09-05, 00:00:05,VALID,919.226,VALID,0,VALID,97.7398,VALID,0,VALID,19.3143,VALID,126,VALID,0.5875,
2011-09-05, 00:01:05,VALID,919.226,VALID,0,VALID,97.7474,VALID,0,VALID,19.2948,VALID,126,VALID,0.244531,
2011-09-05, 00:02:05,VALID,919.231,VALID,0,VALID,97.7551,VALID,0,VALID,19.2933,VALID,126,VALID,0.223828,
2011-09-05, 00:03:05,VALID,919.244,VALID,0,VALID,97.7474,VALID,0,VALID,19.2753,VALID,126,VALID,0.212109,
2011-09-05, 00:04:05,VALID,919.252,VALID,0,VALID,97.7551,VALID,0,VALID,19.2948,VALID,126,VALID,0.106641,
2011-09-05, 00:05:05,VALID,919.28,VALID,0,VALID,97.7627,VALID,0,VALID,19.2753,VALID,125,VALID,0,
2011-09-05, 00:06:05,VALID,919.272,VALID,0,VALID,97.7627,VALID,0,VALID,19.3143,VALID,126,VALID,0.216016,
2011-09-05, 00:07:05,VALID,919.28,VALID,0,VALID,97.7703,VALID,0,VALID,19.3533,VALID,126,VALID,0.184375,
2011-09-05, 00:08:05,VALID,919.317,VALID,0,VALID,97.7627,VALID,0,VALID,19.3533,VALID,126,VALID,0.285547,
2011-09-05, 00:09:05,VALID,919.294,VALID,0,VALID,97.7398,VALID,0,VALID,19.3323,VALID,126,VALID,0.371875,
2011-09-05, 00:10:05,VALID,919.321,VALID,0,VALID,97.7398,VALID,0,VALID,19.3128,VALID,125,VALID,0.390625,
2011-09-05, 00:11:05,VALID,919.315,VALID,0,VALID,97.7551,VALID,0,VALID,19.3128,VALID,125,VALID,0.5,
2011-09-05, 00:12:05,VALID,919.304,VALID,0,VALID,97.7322,VALID,0,VALID,19.3323,VALID,126,VALID,0.593359,
2011-09-05, 00:13:05,VALID,919.322,VALID,0,VALID,97.7398,VALID,0,VALID,19.2738,VALID,126,VALID,0.711719,
2011-09-05, 00:14:05,VALID,919.298,VALID,0,VALID,97.7474,VALID,0,VALID,19.2543,VALID,126,VALID,0.682422,
2011-09-05, 00:15:05,VALID,919.343,VALID,0,VALID,97.7551,VALID,0,VALID,19.2543,VALID,126,VALID,0.594141,
2011-09-05, 00:16:05,VALID,919.323,VALID,0,VALID,97.7474,VALID,0,VALID,19.2738,VALID,126,VALID,0.690625,
2011-09-05, 00:17:05,VALID,919.339,VALID,0,VALID,97.7856,VALID,0,VALID,19.2528,VALID,126,VALID,0.802734,
2011-09-05, 00:18:05,VALID,919.368,VALID,0,VALID,97.7627,VALID,0,VALID,19.2933,VALID,126,VALID,0.617969,
2011-09-05, 00:19:05,VALID,919.391,VALID,0,VALID,97.7779,VALID,0,VALID,19.2933,VALID,126,VALID,0.740234,
2011-09-05, 00:20:05,VALID,919.403,VALID,0,VALID,97.7551,VALID,0,VALID,19.2933,VALID,126,VALID,0.489844,
2011-09-05, 00:21:05,VALID,919.434,VALID,0,VALID,97.7856,VALID,0,VALID,19.3323,VALID,126,VALID,0.350391,
2011-09-05, 00:22:05,VALID,919.415,VALID,0,VALID,97.7703,VALID,0,VALID,19.3713,VALID,150,VALID,0.515234,
2011-09-05, 00:23:05,VALID,919.404,VALID,0,VALID,97.7932,VALID,0,VALID,19.4103,VALID,150,VALID,0.390625,
2011-09-05, 00:24:05,VALID,919.388,VALID,0,VALID,97.7779,VALID,0,VALID,19.4688,VALID,150,VALID,0.838672,
2011-09-05, 00:25:05,VALID,919.369,VALID,0,VALID,97.7627,VALID,0,VALID,19.5078,VALID,150,VALID,0.458594,
2011-09-05, 00:26:05,VALID,919.343,VALID,0,VALID,97.7703,VALID,0,VALID,19.5678,VALID,150,VALID,0.458203,
2011-09-05, 00:27:05,VALID,919.346,VALID,0,VALID,97.7703,VALID,0,VALID,19.5663,VALID,150,VALID,0.392969,
2011-09-05, 00:28:05,VALID,919.333,VALID,0,VALID,97.7398,VALID,0,VALID,19.6053,VALID,150,VALID,0.353906,
2011-09-05, 00:29:05,VALID,919.337,VALID,0,VALID,97.7779,VALID,0,VALID,19.6248,VALID,150,VALID,0.347656,
2011-09-05, 00:30:05,VALID,919.326,VALID,0,VALID,97.7551,VALID,0,VALID,19.6248,VALID,150,VALID,0.303125,
2011-09-05, 00:31:05,VALID,919.318,VALID,0,VALID,97.7627,VALID,0,VALID,19.6638,VALID,150,VALID,0.216016,
2011-09-05, 00:32:05,VALID,919.301,VALID,0,VALID,97.7551,VALID,0,VALID,19.6638,VALID,150,VALID,0,
2011-09-05, 00:33:05,VALID,919.269,VALID,0,VALID,97.7627,VALID,0,VALID,19.7223,VALID,150,VALID,0,
2011-09-05, 00:34:05,VALID,919.257,VALID,0,VALID,97.7398,VALID,0,VALID,19.7223,VALID,150,VALID,0,
2011-09-05, 00:35:05,VALID,919.23,VALID,0,VALID,97.7551,VALID,0,VALID,19.7028,VALID,150,VALID,0.0707031,
2011-09-05, 00:36:05,VALID,919.226,VALID,0,VALID,97.7474,VALID,0,VALID,19.6053,VALID,150,VALID,0.523047,
2011-09-05, 00:37:05,VALID,919.207,VALID,0,VALID,97.7627,VALID,0,VALID,19.5858,VALID,150,VALID,0.653906,
2011-09-05, 00:38:05,VALID,919.164,VALID,0,VALID,97.7627,VALID,0,VALID,19.5273,VALID,150,VALID,0.769531,
2011-09-05, 00:39:05,VALID,919.173,VALID,0,VALID,97.7551,VALID,0,VALID,19.5093,VALID,150,VALID,0.684766,
2011-09-05, 00:40:05,VALID,919.148,VALID,0,VALID,97.7551,VALID,0,VALID,19.5093,VALID,150,VALID,0.502734,
2011-09-05, 00:41:05,VALID,919.112,VALID,0,VALID,97.7779,VALID,0,VALID,19.5078,VALID,150,VALID,0.393359,
2011-09-05, 00:42:05,VALID,919.115,VALID,0,VALID,97.7779,VALID,0,VALID,19.5078,VALID,150,VALID,0.521094,
2011-09-05, 00:43:05,VALID,919.069,VALID,0,VALID,97.7551,VALID,0,VALID,19.5078,VALID,150,VALID,0.561719,
2011-09-05, 00:44:05,VALID,919.074,VALID,0,VALID,97.7703,VALID,0,VALID,19.5093,VALID,150,VALID,0.798047,
2011-09-05, 00:45:05,VALID,919.074,VALID,0,VALID,97.7627,VALID,0,VALID,19.5078,VALID,150,VALID,0.563281,
2011-09-05, 00:46:05,VALID,919.024,VALID,0,VALID,97.7627,VALID,0,VALID,19.4688,VALID,150,VALID,0.789844,
2011-09-05, 00:47:05,VALID,918.986,VALID,0,VALID,97.7703,VALID,0,VALID,19.4493,VALID,150,VALID,0.962891,
2011-09-05, 00:48:05,VALID,918.982,VALID,0,VALID,97.7703,VALID,0,VALID,19.4493,VALID,150,VALID,0.926562,
2011-09-05, 00:49:05,VALID,918.956,VALID,0,VALID,97.7779,VALID,0,VALID,19.4688,VALID,150,VALID,0.837109,
2011-09-05, 00:50:05,VALID,918.925,VALID,0,VALID,97.7627,VALID,0,VALID,19.4103,VALID,150,VALID,1.03945,
2011-09-05, 00:51:05,VALID,918.928,VALID,0,VALID,97.7779,VALID,0,VALID,19.5093,VALID,124,VALID,1.01992,
2011-09-05, 00:52:05,VALID,918.895,VALID,0,VALID,97.7856,VALID,0,VALID,19.4688,VALID,124,VALID,1.11328,
2011-09-05, 00:53:05,VALID,918.887,VALID,0,VALID,97.7779,VALID,0,VALID,19.5078,VALID,124,VALID,0.901953,
2011-09-05, 00:54:05,VALID,918.855,VALID,0,VALID,97.7932,VALID,0,VALID,19.4688,VALID,124,VALID,0.977734,
2011-09-05, 00:55:05,VALID,918.883,VALID,0,VALID,97.7779,VALID,0,VALID,19.4688,VALID,124,VALID,0.902734,
2011-09-05, 00:56:05,VALID,918.85,VALID,0,VALID,97.7856,VALID,0,VALID,19.5093,VALID,124,VALID,0.54375,
2011-09-05, 00:57:05,VALID,918.798,VALID,0,VALID,97.7779,VALID,0,VALID,19.4883,VALID,124,VALID,0.595703,
2011-09-05, 00:58:05,VALID,918.769,VALID,0,VALID,97.7703,VALID,0,VALID,19.4493,VALID,124,VALID,0.137891,
2011-09-05, 00:59:05,VALID,918.74,VALID,0,VALID,97.7779,VALID,0,VALID,19.4883,VALID,124,VALID,0.220703,
2011-09-05, 01:00:05,VALID,918.728,VALID,0,VALID,97.7932,VALID,0,VALID,19.4688,VALID,124,VALID,0.379297,
2011-09-05, 01:01:05,VALID,918.704,VALID,0,VALID,97.7856,VALID,0,VALID,19.5093,VALID,124,VALID,0.338281,
2011-09-05, 01:02:05,VALID,918.696,VALID,0,VALID,97.7932,VALID,0,VALID,19.4688,VALID,124,VALID,0.578906,
2011-09-05, 01:03:05,VALID,918.671,VALID,0,VALID,97.7932,VALID,0,VALID,19.4688,VALID,124,VALID,0.2875,
2011-09-05, 01:04:05,VALID,918.694,VALID,0,VALID,97.816,VALID,0,VALID,19.4883,VALID,124,VALID,0.354688,
2011-09-05, 01:05:05,VALID,918.697,VALID,0,VALID,97.7856,VALID,0,VALID,19.4688,VALID,124,VALID,0.396484,
2011-09-05, 01:06:05,VALID,918.712,VALID,0,VALID,97.7779,VALID,0,VALID,19.5093,VALID,124,VALID,0.285937,
2011-09-05, 01:07:05,VALID,918.669,VALID,0,VALID,97.8008,VALID,0,VALID,19.4883,VALID,124,VALID,0,
2011-09-05, 01:08:05,VALID,918.663,VALID,0,VALID,97.7856,VALID,0,VALID,19.5093,VALID,124,VALID,0,
2011-09-05, 01:09:05,VALID,918.673,VALID,0,VALID,97.7779,VALID,0,VALID,19.3713,VALID,124,VALID,0,
2011-09-05, 01:10:05,VALID,918.662,VALID,0,VALID,97.7856,VALID,0,VALID,19.3533,VALID,124,VALID,0.0265625,
2011-09-05, 01:11:05,VALID,918.659,VALID,0,VALID,97.7779,VALID,0,VALID,19.3143,VALID,124,VALID,0.680078,
2011-09-05, 01:12:05,VALID,918.686,VALID,0,VALID,97.7932,VALID,0,VALID,19.2948,VALID,124,VALID,0.873828,
2011-09-05, 01:13:05,VALID,918.678,VALID,0,VALID,97.8008,VALID,0,VALID,19.3143,VALID,124,VALID,0.899219,
2011-09-05, 01:14:05,VALID,918.678,VALID,0,VALID,97.8084,VALID,0,VALID,19.2738,VALID,124,VALID,0.616016,
2011-09-05, 01:15:05,VALID,918.642,VALID,0,VALID,97.8008,VALID,0,VALID,19.2933,VALID,124,VALID,0.241406,
2011-09-05, 01:16:05,VALID,918.619,VALID,0,VALID,97.816,VALID,0,VALID,19.2753,VALID,124,VALID,0,
2011-09-05, 01:17:05,VALID,918.63,VALID,0,VALID,97.8084,VALID,0,VALID,19.2738,VALID,124,VALID,0,
2011-09-05, 01:18:05,VALID,918.602,VALID,0,VALID,97.816,VALID,0,VALID,19.2738,VALID,124,VALID,0,
2011-09-05, 01:19:05,VALID,918.592,VALID,0,VALID,97.8237,VALID,0,VALID,19.3338,VALID,124,VALID,0,
2011-09-05, 01:20:05,VALID,918.584,VALID,0,VALID,97.8313,VALID,0,VALID,19.3518,VALID,124,VALID,0,
2011-09-05, 01:21:05,VALID,918.553,VALID,0,VALID,97.816,VALID,0,VALID,19.3323,VALID,124,VALID,0.236719,
2011-09-05, 01:22:05,VALID,918.514,VALID,0,VALID,97.8008,VALID,0,VALID,19.3533,VALID,124,VALID,0.208984,
2011-09-05, 01:23:05,VALID,918.513,VALID,0,VALID,97.816,VALID,0,VALID,19.3533,VALID,124,VALID,0.167187,
2011-09-05, 01:24:05,VALID,918.496,VALID,0,VALID,97.8084,VALID,0,VALID,19.3518,VALID,124,VALID,0.343359,
2011-09-05, 01:25:05,VALID,918.469,VALID,0,VALID,97.816,VALID,0,VALID,19.3308,VALID,124,VALID,0.452734,
2011-09-05, 01:26:05,VALID,918.475,VALID,0,VALID,97.816,VALID,0,VALID,19.3308,VALID,124,VALID,0.417969,
2011-09-05, 01:27:05,VALID,918.411,VALID,0,VALID,97.8237,VALID,0,VALID,19.2723,VALID,124,VALID,0.48125,
2011-09-05, 01:28:05,VALID,918.378,VALID,0,VALID,97.8084,VALID,0.107441,VALID,19.2543,VALID,124,VALID,0.304297,
2011-09-05, 01:29:05,VALID,918.346,VALID,0,VALID,97.8313,VALID,0,VALID,19.2543,VALID,124,VALID,0.551953,
2011-09-05, 01:30:05,VALID,918.33,VALID,0,VALID,97.8084,VALID,0,VALID,19.2348,VALID,124,VALID,0.564062,
2011-09-05, 01:31:05,VALID,918.285,VALID,0,VALID,97.8237,VALID,0,VALID,19.2738,VALID,124,VALID,0.600781,
2011-09-05, 01:32:04,VALID,918.293,VALID,0,VALID,97.8465,VALID,0,VALID,19.2933,VALID,124,VALID,0.642578,
2011-09-05, 01:33:04,VALID,918.289,VALID,0,VALID,97.8313,VALID,0.107441,VALID,19.2738,VALID,124,VALID,0.396094,
2011-09-05, 01:34:04,VALID,918.295,VALID,0,VALID,97.8465,VALID,0.107441,VALID,19.3128,VALID,124,VALID,0.658203,
2011-09-05, 01:35:04,VALID,918.331,VALID,0,VALID,97.8313,VALID,0,VALID,19.2918,VALID,132,VALID,0.505078,
2011-09-05, 01:36:04,VALID,918.323,VALID,0,VALID,97.8237,VALID,0.107441,VALID,19.3308,VALID,159,VALID,0.675,
2011-09-05, 01:37:04,VALID,918.303,VALID,0,VALID,97.8313,VALID,0.107441,VALID,19.3713,VALID,157,VALID,1.00078,
2011-09-05, 01:38:04,VALID,918.318,VALID,0,VALID,97.8237,VALID,0.107441,VALID,19.3908,VALID,157,VALID,0.915234,
2011-09-05, 01:39:04,VALID,918.305,VALID,0,VALID,97.8313,VALID,0,VALID,19.3728,VALID,157,VALID,0.695313,
2011-09-05, 01:40:04,VALID,918.255,VALID,0,VALID,97.8389,VALID,0,VALID,19.3728,VALID,157,VALID,0.886719,
2011-09-05, 01:41:04,VALID,918.211,VALID,0,VALID,97.8465,VALID,0,VALID,19.3338,VALID,119,VALID,0.961719,
2011-09-05, 01:42:04,VALID,918.163,VALID,0,VALID,97.8389,VALID,0,VALID,19.3923,VALID,122,VALID,1.36602,
2011-09-05, 01:43:04,VALID,918.105,VALID,0,VALID,97.8542,VALID,0,VALID,19.3923,VALID,129,VALID,1.20078,
2011-09-05, 01:44:04,VALID,918.071,VALID,0,VALID,97.8389,VALID,0,VALID,19.3713,VALID,127,VALID,1.34102,
2011-09-05, 01:45:04,VALID,918.052,VALID,0,VALID,97.8389,VALID,0,VALID,19.3323,VALID,132,VALID,1.77891,
2011-09-05, 01:46:04,VALID,918.031,VALID,0,VALID,97.8618,VALID,0,VALID,19.3908,VALID,133,VALID,0.837109,
2011-09-05, 01:47:04,VALID,918.02,VALID,0,VALID,97.8313,VALID,0,VALID,19.3908,VALID,133,VALID,1.03047,
2011-09-05, 01:48:04,VALID,918.009,VALID,0,VALID,97.8313,VALID,0,VALID,19.2933,VALID,133,VALID,0.754297,
2011-09-05, 01:49:04,VALID,918.013,VALID,0,VALID,97.8313,VALID,0,VALID,19.3338,VALID,133,VALID,0.688672,
2011-09-05, 01:50:04,VALID,918.001,VALID,0,VALID,97.8618,VALID,0,VALID,19.3323,VALID,133,VALID,0.745703,
2011-09-05, 01:51:04,VALID,917.98,VALID,0,VALID,97.8389,VALID,0,VALID,19.3713,VALID,133,VALID,0.321094,
2011-09-05, 01:52:04,VALID,917.976,VALID,0,VALID,97.8465,VALID,0,VALID,19.3923,VALID,133,VALID,0.448438,
2011-09-05, 01:53:04,VALID,917.978,VALID,0,VALID,97.8542,VALID,0,VALID,19.3713,VALID,133,VALID,0.688672,
2011-09-05, 01:54:04,VALID,917.91,VALID,0,VALID,97.8465,VALID,0,VALID,19.3923,VALID,133,VALID,0.483594,
2011-09-05, 01:55:04,VALID,917.918,VALID,0,VALID,97.8465,VALID,0,VALID,19.4118,VALID,133,VALID,0.604688,
2011-09-05, 01:56:04,VALID,917.872,VALID,0,VALID,97.8465,VALID,0,VALID,19.4118,VALID,133,VALID,0.352734,
2011-09-05, 01:57:04,VALID,917.88,VALID,0,VALID,97.8542,VALID,0,VALID,19.4118,VALID,133,VALID,0.491016,
2011-09-05, 01:58:04,VALID,917.885,VALID,0,VALID,97.8618,VALID,0,VALID,19.3518,VALID,133,VALID,0.657422,
2011-09-05, 01:59:04,VALID,917.855,VALID,0,VALID,97.8389,VALID,0,VALID,19.4313,VALID,133,VALID,0.427734,
2011-09-05, 02:00:04,VALID,917.907,VALID,0,VALID,97.8465,VALID,0,VALID,19.3908,VALID,133,VALID,0.498437,
2011-09-05, 02:01:04,VALID,917.919,VALID,0,VALID,97.8465,VALID,0,VALID,19.4508,VALID,135,VALID,0.821094,
2011-09-05, 02:02:04,VALID,917.907,VALID,0,VALID,97.8542,VALID,0,VALID,19.4703,VALID,155,VALID,0.709375,
2011-09-05, 02:03:04,VALID,917.901,VALID,0,VALID,97.8542,VALID,0,VALID,19.4493,VALID,158,VALID,0.841016,
2011-09-05, 02:04:04,VALID,917.876,VALID,0,VALID,97.8618,VALID,0,VALID,19.4688,VALID,158,VALID,1.11602,
2011-09-05, 02:05:04,VALID,917.883,VALID,0,VALID,97.8542,VALID,0,VALID,19.4508,VALID,158,VALID,0.578125,
2011-09-05, 02:06:04,VALID,917.893,VALID,0,VALID,97.8389,VALID,0,VALID,19.4703,VALID,158,VALID,0.939453,
2011-09-05, 02:07:04,VALID,917.896,VALID,0,VALID,97.8465,VALID,0,VALID,19.4688,VALID,158,VALID,0.939844,
2011-09-05, 02:08:04,VALID,917.882,VALID,0,VALID,97.8618,VALID,0,VALID,19.4898,VALID,148,VALID,0.539844,
2011-09-05, 02:09:04,VALID,917.854,VALID,0,VALID,97.8542,VALID,0,VALID,19.4898,VALID,148,VALID,0.390234,
2011-09-05, 02:10:04,VALID,917.866,VALID,0,VALID,97.8694,VALID,0,VALID,19.4688,VALID,134,VALID,0.127344,
2011-09-05, 02:11:04,VALID,917.814,VALID,0,VALID,97.8465,VALID,0,VALID,19.4898,VALID,153,VALID,0.668359,
2011-09-05, 02:12:04,VALID,917.813,VALID,0,VALID,97.8465,VALID,0,VALID,19.4898,VALID,147,VALID,0.702344,
2011-09-05, 02:13:04,VALID,917.778,VALID,0,VALID,97.877,VALID,0,VALID,19.4703,VALID,129,VALID,0.985156,
2011-09-05, 02:14:04,VALID,917.772,VALID,0,VALID,97.8465,VALID,0,VALID,19.4118,VALID,129,VALID,1.05547,
2011-09-05, 02:15:04,VALID,917.787,VALID,0,VALID,97.8618,VALID,0,VALID,19.4703,VALID,134,VALID,0.560938,
2011-09-05, 02:16:04,VALID,917.768,VALID,0,VALID,97.8542,VALID,0,VALID,19.4118,VALID,116,VALID,1.08008,
2011-09-05, 02:17:04,VALID,917.783,VALID,0,VALID,97.8618,VALID,0,VALID,19.4118,VALID,113,VALID,1.00352,
2011-09-05, 02:18:04,VALID,917.776,VALID,0,VALID,97.8694,VALID,0,VALID,19.4493,VALID,124,VALID,0.666406,
2011-09-05, 02:19:04,VALID,917.781,VALID,0,VALID,97.8618,VALID,0,VALID,19.3713,VALID,124,VALID,0.998047,
2011-09-05, 02:20:04,VALID,917.754,VALID,0,VALID,97.877,VALID,0,VALID,19.4508,VALID,125,VALID,0.828125,
2011-09-05, 02:21:04,VALID,917.745,VALID,0,VALID,97.8847,VALID,0,VALID,19.4508,VALID,124,VALID,0.920703,
2011-09-05, 02:22:04,VALID,917.735,VALID,0,VALID,97.8618,VALID,0,VALID,19.4298,VALID,155,VALID,1.01523,
2011-09-05, 02:23:04,VALID,917.708,VALID,0,VALID,97.8694,VALID,0,VALID,19.4508,VALID,155,VALID,1.18086,
2011-09-05, 02:24:04,VALID,917.711,VALID,0,VALID,97.8618,VALID,0,VALID,19.4493,VALID,176,VALID,0.751172,
2011-09-05, 02:25:04,VALID,917.721,VALID,0,VALID,97.8618,VALID,0,VALID,19.4688,VALID,138,VALID,1.025,
2011-09-05, 02:26:04,VALID,917.712,VALID,0,VALID,97.8542,VALID,0,VALID,19.4493,VALID,167,VALID,1.93164,
2011-09-05, 02:27:04,VALID,917.705,VALID,0,VALID,97.877,VALID,0,VALID,19.4703,VALID,152,VALID,1.47812,
2011-09-05, 02:28:04,VALID,917.7,VALID,0,VALID,97.8999,VALID,0,VALID,19.4508,VALID,182,VALID,1.87344,
2011-09-05, 02:29:04,VALID,917.692,VALID,0,VALID,97.877,VALID,0,VALID,19.4493,VALID,196,VALID,1.25977,
2011-09-05, 02:30:04,VALID,917.674,VALID,0,VALID,97.8694,VALID,0,VALID,19.4493,VALID,185,VALID,0.819922,
2011-09-05, 02:31:04,VALID,917.649,VALID,0,VALID,97.8618,VALID,0,VALID,19.4298,VALID,179,VALID,1.46641,
2011-09-05, 02:32:04,VALID,917.619,VALID,0,VALID,97.877,VALID,0,VALID,19.4298,VALID,172,VALID,1.50273,
2011-09-05, 02:33:04,VALID,917.615,VALID,0,VALID,97.8694,VALID,0,VALID,19.4508,VALID,170,VALID,1.94492,
2011-09-05, 02:34:04,VALID,917.578,VALID,0,VALID,97.877,VALID,0,VALID,19.4103,VALID,139,VALID,1.46914,
2011-09-05, 02:35:04,VALID,917.566,VALID,0,VALID,97.8618,VALID,0,VALID,19.4298,VALID,114,VALID,1.09102,
2011-09-05, 02:36:04,VALID,917.568,VALID,0,VALID,97.8618,VALID,0,VALID,19.4508,VALID,127,VALID,1.025,
2011-09-05, 02:37:04,VALID,917.585,VALID,0,VALID,97.8923,VALID,0,VALID,19.4298,VALID,142,VALID,1.02461,
2011-09-05, 02:38:04,VALID,917.574,VALID,0,VALID,97.8694,VALID,0,VALID,19.4103,VALID,150,VALID,1.37461,
2011-09-05, 02:39:04,VALID,917.555,VALID,0,VALID,97.8923,VALID,0,VALID,19.4103,VALID,146,VALID,0.992578,
2011-09-05, 02:40:04,VALID,917.555,VALID,0,VALID,97.8999,VALID,0,VALID,19.4298,VALID,166,VALID,1.56211,
2011-09-05, 02:41:04,VALID,917.548,VALID,0,VALID,97.8999,VALID,0,VALID,19.4118,VALID,163,VALID,0.683203,
2011-09-05, 02:42:04,VALID,917.495,VALID,0,VALID,97.8847,VALID,0,VALID,19.3533,VALID,163,VALID,1.07109,
2011-09-05, 02:43:04,VALID,917.506,VALID,0,VALID,97.877,VALID,0,VALID,19.4508,VALID,163,VALID,0.816406,
2011-09-05, 02:44:04,VALID,917.46,VALID,0,VALID,97.8847,VALID,0,VALID,19.3908,VALID,163,VALID,1.22773,
2011-09-05, 02:45:04,VALID,917.445,VALID,0,VALID,97.8923,VALID,0,VALID,19.4103,VALID,163,VALID,1.12773,
2011-09-05, 02:46:04,VALID,917.415,VALID,0,VALID,97.8999,VALID,0,VALID,19.3713,VALID,160,VALID,0.940234,
2011-09-05, 02:47:04,VALID,917.393,VALID,0,VALID,97.877,VALID,0,VALID,19.3908,VALID,153,VALID,1.11484,
2011-09-05, 02:48:04,VALID,917.407,VALID,0,VALID,97.8694,VALID,0,VALID,19.3518,VALID,138,VALID,1.39102,
2011-09-05, 02:49:04,VALID,917.423,VALID,0,VALID,97.8618,VALID,0,VALID,19.3128,VALID,148,VALID,0.928125,
2011-09-05, 02:50:04,VALID,917.42,VALID,0,VALID,97.9152,VALID,0,VALID,19.3128,VALID,175,VALID,1.26055,
2011-09-05, 02:51:04,VALID,917.426,VALID,0,VALID,97.8923,VALID,0,VALID,19.3518,VALID,158,VALID,1.37539,
2011-09-05, 02:52:04,VALID,917.396,VALID,0,VALID,97.9075,VALID,0,VALID,19.3518,VALID,177,VALID,1.05234,
2011-09-05, 02:53:04,VALID,917.431,VALID,0,VALID,97.9152,VALID,0,VALID,19.3128,VALID,176,VALID,0.760547,
2011-09-05, 02:54:04,VALID,917.413,VALID,0,VALID,97.8847,VALID,0,VALID,19.3503,VALID,164,VALID,0.535547,
2011-09-05, 02:55:04,VALID,917.422,VALID,0,VALID,97.8923,VALID,0,VALID,19.3323,VALID,177,VALID,0.737109,
2011-09-05, 02:56:04,VALID,917.443,VALID,0,VALID,97.8847,VALID,0,VALID,19.2933,VALID,170,VALID,1.14922,
2011-09-05, 02:57:04,VALID,917.428,VALID,0,VALID,97.9075,VALID,0,VALID,19.3323,VALID,139,VALID,1.16445,
2011-09-05, 02:58:04,VALID,917.434,VALID,0,VALID,97.9152,VALID,0,VALID,19.3128,VALID,173,VALID,0.650781,
2011-09-05, 02:59:04,VALID,917.461,VALID,0,VALID,97.9075,VALID,0,VALID,19.2933,VALID,114,VALID,0.366406,
2011-09-05, 03:00:04,VALID,917.519,VALID,0,VALID,97.8999,VALID,0,VALID,19.2738,VALID,140,VALID,0.687109,
2011-09-05, 03:01:04,VALID,917.499,VALID,0,VALID,97.8999,VALID,0,VALID,19.2738,VALID,167,VALID,1.2668,
2011-09-05, 03:02:04,VALID,917.499,VALID,0,VALID,97.9075,VALID,0,VALID,19.3128,VALID,162,VALID,0.623828,
2011-09-05, 03:03:04,VALID,917.474,VALID,0,VALID,97.9152,VALID,0,VALID,19.2933,VALID,140,VALID,0.717578,
2011-09-05, 03:04:04,VALID,917.475,VALID,0,VALID,97.8923,VALID,0,VALID,19.2738,VALID,153,VALID,1.00937,
2011-09-05, 03:05:04,VALID,917.463,VALID,0,VALID,97.8923,VALID,0,VALID,19.3518,VALID,154,VALID,1.08359,
2011-09-05, 03:06:04,VALID,917.466,VALID,0,VALID,97.877,VALID,0,VALID,19.3533,VALID,145,VALID,0.733594,
2011-09-05, 03:07:04,VALID,917.441,VALID,0,VALID,97.8999,VALID,0,VALID,19.2348,VALID,150,VALID,1.44102,
2011-09-05, 03:08:04,VALID,917.448,VALID,0,VALID,97.9075,VALID,0,VALID,19.2153,VALID,146,VALID,0.899609,
2011-09-05, 03:09:04,VALID,917.444,VALID,0,VALID,97.9075,VALID,0,VALID,19.2933,VALID,135,VALID,0.970312,
2011-09-05, 03:10:04,VALID,917.501,VALID,0,VALID,97.8923,VALID,0,VALID,19.2753,VALID,124,VALID,1.03516,
2011-09-05, 03:11:04,VALID,917.532,VALID,0,VALID,97.9075,VALID,0,VALID,19.2348,VALID,160,VALID,0.472656,
2011-09-05, 03:12:04,VALID,917.549,VALID,0,VALID,97.9152,VALID,0,VALID,19.2738,VALID,128,VALID,1.04102,
2011-09-05, 03:13:04,VALID,917.587,VALID,0,VALID,97.8999,VALID,0,VALID,19.2558,VALID,118,VALID,1.10703,
2011-09-05, 03:14:04,VALID,917.589,VALID,0,VALID,97.8923,VALID,0,VALID,19.2153,VALID,120,VALID,0.554688,
2011-09-05, 03:15:04,VALID,917.606,VALID,0,VALID,97.9075,VALID,0,VALID,19.2558,VALID,120,VALID,1.03672,
2011-09-05, 03:16:04,VALID,917.584,VALID,0,VALID,97.8999,VALID,0,VALID,19.1973,VALID,120,VALID,0.428906,
2011-09-05, 03:17:04,VALID,917.533,VALID,0,VALID,97.9228,VALID,0,VALID,19.2168,VALID,120,VALID,0.685938,
2011-09-05, 03:18:04,VALID,917.58,VALID,0,VALID,97.9075,VALID,0,VALID,19.1958,VALID,120,VALID,0.51875,
2011-09-05, 03:19:04,VALID,917.561,VALID,0,VALID,97.9228,VALID,0,VALID,19.1763,VALID,120,VALID,0.60625,
2011-09-05, 03:20:04,VALID,917.562,VALID,0,VALID,97.9075,VALID,0,VALID,19.0983,VALID,120,VALID,0.496094,
2011-09-05, 03:21:04,VALID,917.548,VALID,0,VALID,97.9075,VALID,0,VALID,19.1763,VALID,120,VALID,0.896094,
2011-09-05, 03:22:04,VALID,917.527,VALID,0,VALID,97.9228,VALID,0,VALID,19.1373,VALID,120,VALID,0.957812,
2011-09-05, 03:23:04,VALID,917.511,VALID,0,VALID,97.9075,VALID,0,VALID,19.1388,VALID,120,VALID,1.24648,
2011-09-05, 03:24:04,VALID,917.527,VALID,0,VALID,97.9228,VALID,0,VALID,19.1373,VALID,120,VALID,0.795313,
2011-09-05, 03:25:04,VALID,917.485,VALID,0,VALID,97.9228,VALID,0,VALID,19.0998,VALID,120,VALID,0.830078,
2011-09-05, 03:26:04,VALID,917.462,VALID,0,VALID,97.9152,VALID,0,VALID,19.0398,VALID,120,VALID,0.907031,
2011-09-05, 03:27:04,VALID,917.419,VALID,0,VALID,97.9228,VALID,0,VALID,19.0593,VALID,120,VALID,0.354688,
2011-09-05, 03:28:04,VALID,917.414,VALID,0,VALID,97.9228,VALID,0,VALID,19.0593,VALID,120,VALID,0.500781,
2011-09-05, 03:29:04,VALID,917.402,VALID,0,VALID,97.9228,VALID,0,VALID,19.0788,VALID,120,VALID,0.403125,
2011-09-05, 03:30:04,VALID,917.413,VALID,0,VALID,97.9228,VALID,0,VALID,19.0398,VALID,120,VALID,0,
2011-09-05, 03:31:04,VALID,917.42,VALID,0,VALID,97.938,VALID,0,VALID,19.0398,VALID,120,VALID,0,
2011-09-05, 03:32:04,VALID,917.406,VALID,0,VALID,97.938,VALID,0,VALID,19.0398,VALID,120,VALID,0.232812,
2011-09-05, 03:33:04,VALID,917.374,VALID,0,VALID,97.938,VALID,0,VALID,19.0398,VALID,132,VALID,0.466797,
2011-09-05, 03:34:04,VALID,917.364,VALID,0,VALID,97.938,VALID,0,VALID,19.0008,VALID,140,VALID,1.13789,
2011-09-05, 03:35:04,VALID,917.36,VALID,0,VALID,97.9228,VALID,0,VALID,18.9814,VALID,152,VALID,0.903516,
2011-09-05, 03:36:04,VALID,917.377,VALID,0,VALID,97.938,VALID,0,VALID,19.0413,VALID,152,VALID,0.301562,
2011-09-05, 03:37:04,VALID,917.36,VALID,0,VALID,97.9533,VALID,0,VALID,19.0218,VALID,152,VALID,0.321875,
2011-09-05, 03:38:04,VALID,917.371,VALID,0,VALID,97.9533,VALID,0,VALID,19.0203,VALID,152,VALID,0.350391,
2011-09-05, 03:39:04,VALID,917.368,VALID,0,VALID,97.9456,VALID,0,VALID,19.0023,VALID,152,VALID,0.190234,
2011-09-05, 03:40:04,VALID,917.366,VALID,0,VALID,97.938,VALID,0.107441,VALID,18.9814,VALID,152,VALID,0.00585938,
2011-09-05, 03:41:04,VALID,917.368,VALID,0,VALID,97.9456,VALID,0,VALID,18.9424,VALID,152,VALID,0.269922,
2011-09-05, 03:42:04,VALID,917.4,VALID,0,VALID,97.9609,VALID,0,VALID,18.9814,VALID,152,VALID,0.308594,
2011-09-05, 03:43:04,VALID,917.385,VALID,0,VALID,97.9304,VALID,0,VALID,18.9034,VALID,152,VALID,0.0347656,
2011-09-05, 03:44:04,VALID,917.411,VALID,0,VALID,97.938,VALID,0,VALID,18.9229,VALID,152,VALID,0.0976563,
2011-09-05, 03:45:04,VALID,917.403,VALID,0,VALID,97.9533,VALID,0,VALID,18.9229,VALID,152,VALID,0.0488281,